TimeMST,TemperatureF,Dew PointF,Humidity,Sea Level PressureIn,VisibilityMPH,Wind Direction,Wind SpeedMPH,Gust SpeedMPH,PrecipitationIn,Events,Conditions,WindDirDegrees,DateUTC
12:53 AM,34.0,19.0,54,30.06,10.0,NNW,4.6,-,N/A,,Clear,330,2012-03-10 07:53:00
1:53 AM,37.0,18.0,46,30.02,10.0,WNW,3.5,-,N/A,,Clear,300,2012-03-10 08:53:00
2:53 AM,30.0,19.9,66,30.02,10.0,South,3.5,-,N/A,,Clear,170,2012-03-10 09:53:00
3:53 AM,35.1,16.0,46,29.98,10.0,Calm,Calm,-,N/A,,Clear,0,2012-03-10 10:53:00
4:53 AM,32.0,19.0,59,29.99,10.0,Calm,Calm,-,N/A,,Clear,0,2012-03-10 11:53:00
5:53 AM,32.0,17.1,54,29.99,10.0,Calm,Calm,-,N/A,,Clear,0,2012-03-10 12:53:00
6:53 AM,32.0,15.1,50,30.01,10.0,Calm,Calm,-,N/A,,Clear,0,2012-03-10 13:53:00
7:53 AM,32.0,24.1,73,30.01,10.0,Calm,Calm,-,N/A,,Clear,0,2012-03-10 14:53:00
8:53 AM,37.9,24.1,57,29.98,10.0,ESE,3.5,-,N/A,,Clear,110,2012-03-10 15:53:00
9:53 AM,42.1,24.1,49,29.96,10.0,East,5.8,-,N/A,,Clear,100,2012-03-10 16:53:00
10:53 AM,48.0,23.0,37,29.92,10.0,Calm,Calm,-,N/A,,Clear,0,2012-03-10 17:53:00
11:53 AM,50.0,24.1,36,29.89,10.0,Calm,Calm,-,N/A,,Clear,0,2012-03-10 18:53:00
12:53 PM,53.1,25.0,34,29.85,10.0,Calm,Calm,-,N/A,,Clear,0,2012-03-10 19:53:00
1:53 PM,55.9,25.0,30,29.79,10.0,Calm,Calm,-,N/A,,Clear,0,2012-03-10 20:53:00
2:53 PM,57.0,21.9,26,29.79,10.0,SSE,4.6,-,N/A,,Clear,150,2012-03-10 21:53:00
3:53 PM,57.9,19.0,22,29.74,10.0,SSE,3.5,-,N/A,,Clear,150,2012-03-10 22:53:00
4:53 PM,57.0,21.9,26,29.74,10.0,SSE,3.5,-,N/A,,Clear,150,2012-03-10 23:53:00
5:53 PM,53.1,25.0,34,29.75,10.0,SSW,3.5,-,N/A,,Clear,210,2012-03-11 00:53:00
6:53 PM,46.9,26.1,44,29.77,10.0,WSW,10.4,-,N/A,,Clear,240,2012-03-11 01:53:00
7:53 PM,45.0,23.0,42,29.79,10.0,Calm,Calm,-,N/A,,Clear,0,2012-03-11 02:53:00
8:53 PM,39.9,25.0,55,29.79,10.0,Calm,Calm,-,N/A,,Clear,0,2012-03-11 03:53:00
9:53 PM,41.0,19.9,43,29.77,10.0,West,4.6,-,N/A,,Clear,270,2012-03-11 04:53:00
10:53 PM,33.1,23.0,66,29.77,10.0,SSW,5.8,-,N/A,,Clear,210,2012-03-11 05:53:00
11:53 PM,39.0,21.9,50,29.73,10.0,Calm,Calm,-,N/A,,Clear,0,2012-03-11 06:53:00